TimeMST,TemperatureF,Dew PointF,Humidity,Sea Level PressureIn,VisibilityMPH,Wind Direction,Wind SpeedMPH,Gust SpeedMPH,PrecipitationIn,Events,Conditions,WindDirDegrees,DateUTC
1:15 AM,32.0,19.4,60,30.42,10.0,ESE,5.8,-,N/A,,Clear,120,2012-11-20 08:15:00
1:35 AM,32.0,19.4,60,-9999,10.0,SE,4.6,-,N/A,,Clear,130,2012-11-20 08:35:00
5:15 AM,30.2,10.4,44,30.41,10.0,SE,5.8,-,N/A,,Clear,130,2012-11-20 12:15:00
5:35 AM,30.2,10.4,44,30.41,10.0,ESE,6.9,-,N/A,,Clear,120,2012-11-20 12:35:00
5:55 AM,30.2,10.4,44,30.41,10.0,ESE,3.5,-,N/A,,Clear,120,2012-11-20 12:55:00
6:15 AM,30.2,10.4,44,30.41,10.0,SE,5.8,-,N/A,,Clear,140,2012-11-20 13:15:00
6:35 AM,30.2,10.4,44,30.41,10.0,ESE,5.8,-,N/A,,Clear,110,2012-11-20 13:35:00
6:55 AM,30.2,8.6,40,30.41,10.0,ESE,6.9,-,N/A,,Clear,120,2012-11-20 13:55:00
7:15 AM,30.2,10.4,44,30.42,10.0,ESE,5.8,-,N/A,,Clear,120,2012-11-20 14:15:00
7:35 AM,30.2,10.4,44,30.42,10.0,SE,5.8,-,N/A,,Clear,140,2012-11-20 14:35:00
7:55 AM,32.0,10.4,41,30.43,10.0,ESE,6.9,-,N/A,,Clear,110,2012-11-20 14:55:00
8:15 AM,32.0,14.0,48,30.43,10.0,ESE,3.5,-,N/A,,Clear,120,2012-11-20 15:15:00
8:35 AM,33.8,10.4,38,30.43,10.0,ESE,4.6,-,N/A,,Clear,120,2012-11-20 15:35:00
8:55 AM,35.6,10.4,35,30.42,10.0,SE,4.6,-,N/A,,Clear,140,2012-11-20 15:55:00
9:15 AM,37.4,8.6,30,30.42,10.0,ESE,4.6,-,N/A,,Clear,110,2012-11-20 16:15:00
9:35 AM,39.2,10.4,31,30.42,10.0,Calm,Calm,-,N/A,,Clear,0,2012-11-20 16:35:00
9:55 AM,41.0,10.4,29,30.42,10.0,Calm,Calm,-,N/A,,Clear,0,2012-11-20 16:55:00
10:15 AM,41.0,10.4,29,30.42,10.0,Calm,Calm,-,N/A,,Clear,0,2012-11-20 17:15:00
10:35 AM,44.6,10.4,25,30.42,10.0,Calm,Calm,-,N/A,,Clear,0,2012-11-20 17:35:00
10:55 AM,46.4,10.4,23,30.41,10.0,Calm,Calm,-,N/A,,Clear,0,2012-11-20 17:55:00
11:15 AM,48.2,6.8,19,30.40,10.0,Calm,Calm,-,N/A,,Clear,0,2012-11-20 18:15:00
11:35 AM,50.0,8.6,19,30.39,10.0,WSW,5.8,-,N/A,,Clear,240,2012-11-20 18:35:00
11:55 AM,50.0,6.8,17,30.38,10.0,WSW,8.1,-,N/A,,Clear,250,2012-11-20 18:55:00
12:15 PM,50.0,8.6,19,30.37,10.0,West,8.1,-,N/A,,Clear,260,2012-11-20 19:15:00
12:35 PM,50.0,8.6,19,30.36,10.0,WSW,8.1,-,N/A,,Clear,250,2012-11-20 19:35:00
12:55 PM,50.0,8.6,19,30.35,10.0,WSW,8.1,-,N/A,,Clear,250,2012-11-20 19:55:00
1:15 PM,51.8,8.6,18,30.34,10.0,West,6.9,-,N/A,,Clear,260,2012-11-20 20:15:00
1:35 PM,51.8,10.4,19,30.33,10.0,West,8.1,-,N/A,,Clear,260,2012-11-20 20:35:00
1:55 PM,51.8,10.4,19,30.33,10.0,West,11.5,-,N/A,,Clear,260,2012-11-20 20:55:00
2:15 PM,50.0,10.4,20,30.33,10.0,West,12.7,-,N/A,,Clear,260,2012-11-20 21:15:00
2:35 PM,50.0,10.4,20,30.32,10.0,West,12.7,-,N/A,,Clear,260,2012-11-20 21:35:00
2:55 PM,50.0,12.2,22,30.32,10.0,West,15.0,18.4,N/A,,Clear,260,2012-11-20 21:55:00
3:15 PM,48.2,14.0,25,30.32,10.0,West,15.0,-,N/A,,Clear,260,2012-11-20 22:15:00
3:35 PM,48.2,15.8,27,30.32,10.0,West,11.5,-,N/A,,Clear,260,2012-11-20 22:35:00
3:55 PM,48.2,15.8,27,30.33,10.0,West,11.5,-,N/A,,Clear,260,2012-11-20 22:55:00
4:15 PM,46.4,17.6,32,30.33,10.0,West,9.2,-,N/A,,Clear,260,2012-11-20 23:15:00
4:35 PM,46.4,17.6,32,30.33,10.0,WSW,8.1,-,N/A,,Clear,240,2012-11-20 23:35:00
4:55 PM,44.6,17.6,34,30.33,10.0,SW,6.9,-,N/A,,Clear,230,2012-11-20 23:55:00
5:15 PM,42.8,17.6,36,30.34,10.0,South,3.5,-,N/A,,Clear,170,2012-11-21 00:15:00
5:35 PM,42.8,17.6,36,30.35,10.0,Calm,Calm,-,N/A,,Clear,0,2012-11-21 00:35:00
5:55 PM,39.2,17.6,42,30.35,10.0,East,5.8,-,N/A,,Clear,90,2012-11-21 00:55:00
6:15 PM,39.2,17.6,42,30.35,10.0,Calm,Calm,-,N/A,,Clear,0,2012-11-21 01:15:00
6:35 PM,37.4,17.6,45,30.35,10.0,East,3.5,-,N/A,,Clear,100,2012-11-21 01:35:00
6:55 PM,37.4,17.6,45,30.36,10.0,Calm,Calm,-,N/A,,Clear,0,2012-11-21 01:55:00
7:15 PM,37.4,17.6,45,30.36,10.0,East,5.8,-,N/A,,Clear,100,2012-11-21 02:15:00
7:35 PM,35.6,19.4,52,30.36,10.0,ESE,5.8,-,N/A,,Clear,110,2012-11-21 02:35:00
7:55 PM,35.6,19.4,52,30.35,10.0,ESE,8.1,-,N/A,,Clear,110,2012-11-21 02:55:00
8:15 PM,35.6,17.6,48,30.36,10.0,ESE,9.2,-,N/A,,Clear,120,2012-11-21 03:15:00
8:35 PM,37.4,17.6,45,30.36,10.0,SE,6.9,-,N/A,,Clear,140,2012-11-21 03:35:00
8:55 PM,37.4,17.6,45,30.35,10.0,ESE,5.8,-,N/A,,Clear,120,2012-11-21 03:55:00
9:15 PM,35.6,17.6,48,30.35,10.0,ESE,9.2,-,N/A,,Clear,120,2012-11-21 04:15:00
9:35 PM,35.6,17.6,48,30.35,10.0,ESE,9.2,-,N/A,,Clear,120,2012-11-21 04:35:00
9:55 PM,35.6,17.6,48,30.35,10.0,SE,8.1,-,N/A,,Clear,130,2012-11-21 04:55:00
10:15 PM,35.6,19.4,52,30.35,10.0,SE,6.9,-,N/A,,Clear,130,2012-11-21 05:15:00
10:35 PM,35.6,17.6,48,30.35,10.0,SE,5.8,-,N/A,,Clear,130,2012-11-21 05:35:00
10:55 PM,35.6,17.6,48,30.34,10.0,SE,6.9,-,N/A,,Clear,130,2012-11-21 05:55:00
11:15 PM,35.6,17.6,48,30.34,10.0,SE,6.9,-,N/A,,Clear,130,2012-11-21 06:15:00
11:35 PM,35.6,17.6,48,30.34,10.0,ESE,8.1,-,N/A,,Clear,120,2012-11-21 06:35:00
11:55 PM,37.4,14.0,38,30.33,10.0,SSE,6.9,-,N/A,,Clear,150,2012-11-21 06:55:00